Tabellarische Ansicht des 17.8.2016


Die einzelnen Werte des Tages

Uhrzeit Temperatur Luftdruck Luftfeuchte Wind Hi-Wind Taupunkt THW Index Wind Chill Heat Index Solar- strahlung Regen

00:00

12.8 C

1014.4 hpa

79 %

0.0 km/h aus 117

0.0 km/h aus ---

9.3 C

12.7 C

12.8 C

12.7 C

0 W/m

0.00 mm

00:05

12.7 C

1014.4 hpa

80 %

0.0 km/h aus 69

0.0 km/h aus ---

9.4 C

12.6 C

12.7 C

12.6 C

0 W/m

0.00 mm

00:10

12.6 C

1014.4 hpa

80 %

0.0 km/h aus 113

0.0 km/h aus ---

9.2 C

12.4 C

12.6 C

12.4 C

0 W/m

0.00 mm

00:15

12.4 C

1014.4 hpa

81 %

0.0 km/h aus 115

0.0 km/h aus ---

9.3 C

12.3 C

12.4 C

12.3 C

0 W/m

0.00 mm

00:20

12.3 C

1014.4 hpa

81 %

0.0 km/h aus 117

0.0 km/h aus ---

9.2 C

12.2 C

12.3 C

12.2 C

0 W/m

0.00 mm

00:25

12.2 C

1014.4 hpa

82 %

0.0 km/h aus 117

0.0 km/h aus ---

9.2 C

12.1 C

12.2 C

12.1 C

0 W/m

0.00 mm

00:30

12.1 C

1014.4 hpa

82 %

0.0 km/h aus 117

0.0 km/h aus ---

9.1 C

12.0 C

12.1 C

12.0 C

0 W/m

0.00 mm

00:35

12.0 C

1014.4 hpa

82 %

0.0 km/h aus 116

0.0 km/h aus ---

9.0 C

11.9 C

12.0 C

11.9 C

0 W/m

0.00 mm

00:40

11.9 C

1014.4 hpa

82 %

0.0 km/h aus 115

0.0 km/h aus ---

9.0 C

11.8 C

11.9 C

11.8 C

0 W/m

0.00 mm

00:45

11.8 C

1014.4 hpa

82 %

0.0 km/h aus 115

0.0 km/h aus ---

8.9 C

11.7 C

11.8 C

11.7 C

0 W/m

0.00 mm

00:50

11.8 C

1014.4 hpa

82 %

0.0 km/h aus 117

0.0 km/h aus ---

8.8 C

11.7 C

11.8 C

11.7 C

0 W/m

0.00 mm

00:55

11.7 C

1014.4 hpa

82 %

0.0 km/h aus 117

0.0 km/h aus ---

8.7 C

11.6 C

11.7 C

11.6 C

0 W/m

0.00 mm

01:00

11.6 C

1014.5 hpa

82 %

0.0 km/h aus 117

0.0 km/h aus ---

8.6 C

11.5 C

11.6 C

11.5 C

0 W/m

0.00 mm

01:05

11.5 C

1014.5 hpa

83 %

0.0 km/h aus 116

0.0 km/h aus ---

8.7 C

11.4 C

11.5 C

11.4 C

0 W/m

0.00 mm

01:10

11.4 C

1014.5 hpa

83 %

0.0 km/h aus 114

0.0 km/h aus ---

8.7 C

11.4 C

11.4 C

11.4 C

0 W/m

0.00 mm

01:15

11.3 C

1014.7 hpa

83 %

0.0 km/h aus 116

0.0 km/h aus ---

8.5 C

11.3 C

11.3 C

11.3 C

0 W/m

0.00 mm

01:20

11.3 C

1014.7 hpa

83 %

0.0 km/h aus 117

0.0 km/h aus ---

8.5 C

11.2 C

11.3 C

11.2 C

0 W/m

0.00 mm

01:25

11.2 C

1014.7 hpa

83 %

0.0 km/h aus 117

0.0 km/h aus ---

8.4 C

11.2 C

11.2 C

11.2 C

0 W/m

0.00 mm

01:30

11.2 C

1014.7 hpa

83 %

0.0 km/h aus 117

0.0 km/h aus ---

8.4 C

11.1 C

11.2 C

11.1 C

0 W/m

0.00 mm

01:35

11.1 C

1014.7 hpa

84 %

0.0 km/h aus 116

1.6 km/h aus N

8.5 C

11.1 C

11.1 C

11.1 C

0 W/m

0.00 mm

01:40

11.1 C

1014.7 hpa

85 %

0.0 km/h aus 114

0.0 km/h aus ---

8.7 C

11.1 C

11.1 C

11.1 C

0 W/m

0.00 mm

01:45

11.1 C

1014.7 hpa

86 %

0.0 km/h aus 117

0.0 km/h aus ---

8.8 C

11.1 C

11.1 C

11.1 C

0 W/m

0.00 mm

01:50

11.1 C

1014.7 hpa

87 %

0.0 km/h aus 117

0.0 km/h aus ---

9.0 C

11.1 C

11.1 C

11.1 C

0 W/m

0.00 mm

01:55

11.1 C

1014.7 hpa

87 %

0.0 km/h aus 117

0.0 km/h aus ---

9.0 C

11.2 C

11.1 C

11.2 C

0 W/m

0.00 mm

02:00

11.1 C

1014.7 hpa

87 %

0.0 km/h aus 117

0.0 km/h aus ---

9.0 C

11.1 C

11.1 C

11.1 C

0 W/m

0.00 mm

02:05

11.1 C

1014.7 hpa

87 %

0.0 km/h aus 114

0.0 km/h aus ---

9.0 C

11.1 C

11.1 C

11.1 C

0 W/m

0.00 mm

02:10

11.0 C

1014.7 hpa

87 %

0.0 km/h aus 115

0.0 km/h aus ---

8.9 C

11.1 C

11.0 C

11.1 C

0 W/m

0.00 mm

02:15

10.9 C

1014.5 hpa

87 %

0.0 km/h aus 117

0.0 km/h aus ---

8.9 C

11.0 C

10.9 C

11.0 C

0 W/m

0.00 mm

02:20

10.9 C

1014.5 hpa

87 %

0.0 km/h aus 117

0.0 km/h aus ---

8.8 C

10.9 C

10.9 C

10.9 C

0 W/m

0.00 mm

02:25

10.8 C

1014.5 hpa

86 %

0.0 km/h aus 117

0.0 km/h aus ---

8.6 C

10.8 C

10.8 C

10.8 C

0 W/m

0.00 mm

02:30

10.7 C

1014.5 hpa

86 %

0.0 km/h aus 116

0.0 km/h aus ---

8.5 C

10.7 C

10.7 C

10.7 C

0 W/m

0.00 mm

02:35

10.6 C

1014.5 hpa

86 %

0.0 km/h aus 113

0.0 km/h aus ---

8.4 C

10.6 C

10.6 C

10.6 C

0 W/m

0.00 mm

02:40

10.6 C

1014.5 hpa

86 %

0.0 km/h aus 118

0.0 km/h aus ---

8.3 C

10.6 C

10.6 C

10.6 C

0 W/m

0.00 mm

02:45

10.4 C

1014.4 hpa

86 %

0.0 km/h aus 116

0.0 km/h aus ---

8.2 C

10.5 C

10.4 C

10.5 C

0 W/m

0.00 mm

02:50

10.3 C

1014.4 hpa

86 %

0.0 km/h aus 117

0.0 km/h aus ---

8.1 C

10.4 C

10.3 C

10.4 C

0 W/m

0.00 mm

02:55

10.3 C

1014.4 hpa

86 %

0.0 km/h aus 117

0.0 km/h aus ---

8.0 C

10.3 C

10.3 C

10.3 C

0 W/m

0.00 mm

03:00

10.2 C

1014.4 hpa

85 %

0.0 km/h aus 113

0.0 km/h aus ---

7.8 C

10.2 C

10.2 C

10.2 C

0 W/m

0.00 mm

03:05

10.1 C

1014.4 hpa

86 %

0.0 km/h aus 114

0.0 km/h aus ---

7.8 C

10.1 C

10.1 C

10.1 C

0 W/m

0.00 mm

03:10

10.0 C

1014.4 hpa

86 %

0.0 km/h aus 116

0.0 km/h aus ---

7.8 C

10.1 C

10.0 C

10.1 C

0 W/m

0.00 mm

03:15

9.9 C

1014.3 hpa

87 %

0.0 km/h aus 116

0.0 km/h aus ---

7.9 C

10.1 C

9.9 C

10.1 C

0 W/m

0.00 mm

03:20

9.9 C

1014.3 hpa

87 %

0.0 km/h aus 117

0.0 km/h aus ---

7.8 C

10.0 C

9.9 C

10.0 C

0 W/m

0.00 mm

03:25

9.8 C

1014.3 hpa

87 %

0.0 km/h aus 117

0.0 km/h aus ---

7.8 C

9.9 C

9.8 C

9.9 C

0 W/m

0.00 mm

03:30

9.7 C

1014.3 hpa

87 %

0.0 km/h aus 116

0.0 km/h aus ---

7.7 C

9.8 C

9.7 C

9.8 C

0 W/m

0.00 mm

03:35

9.7 C

1014.3 hpa

87 %

0.0 km/h aus 114

0.0 km/h aus ---

7.7 C

9.8 C

9.7 C

9.8 C

0 W/m

0.00 mm

03:40

9.7 C

1014.3 hpa

87 %

0.0 km/h aus 117

0.0 km/h aus ---

7.6 C

9.8 C

9.7 C

9.8 C

0 W/m

0.00 mm

03:45

9.6 C

1014.2 hpa

87 %

0.0 km/h aus 118

0.0 km/h aus ---

7.5 C

9.7 C

9.6 C

9.7 C

0 W/m

0.00 mm

03:50

9.5 C

1014.2 hpa

88 %

0.0 km/h aus 117

0.0 km/h aus ---

7.6 C

9.6 C

9.5 C

9.6 C

0 W/m

0.00 mm

03:55

9.4 C

1014.2 hpa

88 %

0.0 km/h aus 117

0.0 km/h aus ---

7.6 C

9.6 C

9.4 C

9.6 C

0 W/m

0.00 mm

04:00

9.4 C

1014.1 hpa

88 %

0.0 km/h aus 114

0.0 km/h aus ---

7.5 C

9.5 C

9.4 C

9.5 C

0 W/m

0.00 mm

04:05

9.3 C

1014.1 hpa

88 %

0.0 km/h aus 114

0.0 km/h aus ---

7.4 C

9.4 C

9.3 C

9.4 C

0 W/m

0.00 mm

04:10

9.3 C

1014.1 hpa

88 %

0.0 km/h aus 117

0.0 km/h aus ---

7.4 C

9.4 C

9.3 C

9.4 C

0 W/m

0.00 mm

04:15

9.2 C

1013.9 hpa

88 %

0.0 km/h aus 117

0.0 km/h aus ---

7.3 C

9.3 C

9.2 C

9.3 C

0 W/m

0.00 mm

04:20

9.1 C

1013.9 hpa

87 %

0.0 km/h aus 117

0.0 km/h aus ---

7.1 C

9.2 C

9.1 C

9.2 C

0 W/m

0.00 mm

04:25

9.1 C

1013.9 hpa

88 %

0.0 km/h aus 116

0.0 km/h aus ---

7.2 C

9.1 C

9.1 C

9.1 C

0 W/m

0.00 mm

04:30

8.9 C

1013.9 hpa

88 %

0.0 km/h aus 115

0.0 km/h aus ---

7.1 C

9.0 C

8.9 C

9.0 C

0 W/m

0.00 mm

04:35

8.9 C

1013.9 hpa

88 %

0.0 km/h aus 113

0.0 km/h aus ---

7.0 C

8.9 C

8.9 C

8.9 C

0 W/m

0.00 mm

04:40

8.8 C

1013.9 hpa

88 %

0.0 km/h aus 117

0.0 km/h aus ---

7.0 C

8.9 C

8.8 C

8.9 C

0 W/m

0.00 mm

04:45

8.8 C

1013.9 hpa

88 %

0.0 km/h aus 117

0.0 km/h aus ---

6.9 C

8.8 C

8.8 C

8.8 C

0 W/m

0.00 mm

04:50

8.7 C

1013.9 hpa

88 %

0.0 km/h aus 118

0.0 km/h aus ---

6.8 C

8.8 C

8.7 C

8.8 C

0 W/m

0.00 mm

04:55

8.6 C

1013.9 hpa

88 %

0.0 km/h aus 116

0.0 km/h aus ---

6.7 C

8.7 C

8.6 C

8.7 C

0 W/m

0.00 mm

05:00

8.6 C

1014.0 hpa

88 %

0.0 km/h aus 113

0.0 km/h aus ---

6.7 C

8.6 C

8.6 C

8.6 C

0 W/m

0.00 mm

05:05

8.5 C

1014.0 hpa

89 %

0.0 km/h aus 114

0.0 km/h aus ---

6.8 C

8.6 C

8.5 C

8.6 C

0 W/m

0.00 mm

05:10

8.5 C

1014.0 hpa

89 %

0.0 km/h aus 116

0.0 km/h aus ---

6.8 C

8.6 C

8.5 C

8.6 C

0 W/m

0.00 mm

05:15

8.4 C

1014.0 hpa

89 %

0.0 km/h aus 117

0.0 km/h aus ---

6.7 C

8.6 C

8.4 C

8.6 C

0 W/m

0.00 mm

05:20

8.4 C

1014.0 hpa

89 %

0.0 km/h aus 116

0.0 km/h aus ---

6.7 C

8.6 C

8.4 C

8.6 C

0 W/m

0.00 mm

05:25

8.4 C

1014.0 hpa

90 %

0.0 km/h aus 117

0.0 km/h aus ---

6.9 C

8.6 C

8.4 C

8.6 C

0 W/m

0.00 mm

05:30

8.4 C

1014.1 hpa

90 %

0.0 km/h aus 117

0.0 km/h aus ---

6.9 C

8.6 C

8.4 C

8.6 C

0 W/m

0.00 mm

05:35

8.4 C

1014.1 hpa

90 %

0.0 km/h aus 113

0.0 km/h aus ---

6.8 C

8.5 C

8.4 C

8.5 C

0 W/m

0.00 mm

05:40

8.4 C

1014.1 hpa

90 %

0.0 km/h aus 115

0.0 km/h aus ---

6.8 C

8.5 C

8.4 C

8.5 C

0 W/m

0.00 mm

05:45

8.4 C

1013.9 hpa

90 %

0.0 km/h aus 116

0.0 km/h aus ---

6.8 C

8.5 C

8.4 C

8.5 C

0 W/m

0.00 mm

05:50

8.3 C

1013.9 hpa

90 %

0.0 km/h aus 117

1.6 km/h aus N

6.8 C

8.4 C

8.3 C

8.4 C

0 W/m

0.00 mm

05:55

8.3 C

1013.9 hpa

91 %

0.0 km/h aus 116

0.0 km/h aus ---

6.9 C

8.4 C

8.3 C

8.4 C

0 W/m

0.00 mm

06:00

8.3 C

1013.9 hpa

91 %

0.0 km/h aus 117

0.0 km/h aus ---

6.9 C

8.4 C

8.3 C

8.4 C

0 W/m

0.00 mm

06:05

8.3 C

1013.9 hpa

91 %

0.0 km/h aus 114

0.0 km/h aus ---

6.9 C

8.4 C

8.3 C

8.4 C

0 W/m

0.00 mm

06:10

8.3 C

1013.9 hpa

91 %

0.0 km/h aus 115

0.0 km/h aus ---

6.9 C

8.4 C

8.3 C

8.4 C

3 W/m

0.00 mm

06:15

8.3 C

1013.9 hpa

91 %

0.0 km/h aus 116

0.0 km/h aus ---

6.9 C

8.4 C

8.3 C

8.4 C

7 W/m

0.00 mm

06:20

8.2 C

1013.9 hpa

91 %

0.0 km/h aus 116

0.0 km/h aus ---

6.8 C

8.3 C

8.2 C

8.3 C

9 W/m

0.00 mm

06:25

8.2 C

1013.9 hpa

91 %

0.0 km/h aus 116

0.0 km/h aus ---

6.8 C

8.3 C

8.2 C

8.3 C

11 W/m

0.00 mm

06:30

8.1 C

1013.9 hpa

91 %

0.0 km/h aus 117

0.0 km/h aus ---

6.7 C

8.2 C

8.1 C

8.2 C

12 W/m

0.00 mm

06:35

8.1 C

1013.9 hpa

91 %

0.0 km/h aus 114

0.0 km/h aus ---

6.7 C

8.2 C

8.1 C

8.2 C

15 W/m

0.00 mm

06:40

8.1 C

1013.9 hpa

91 %

0.0 km/h aus 115

0.0 km/h aus ---

6.7 C

8.2 C

8.1 C

8.2 C

17 W/m

0.00 mm

06:45

8.0 C

1013.9 hpa

91 %

0.0 km/h aus 116

3.2 km/h aus N

6.6 C

8.1 C

8.0 C

8.1 C

19 W/m

0.00 mm

06:50

8.1 C

1013.9 hpa

92 %

0.0 km/h aus 117

4.8 km/h aus N

6.8 C

8.2 C

8.1 C

8.2 C

22 W/m

0.00 mm

06:55

8.2 C

1013.9 hpa

93 %

0.0 km/h aus 117

1.6 km/h aus N

7.1 C

8.3 C

8.2 C

8.3 C

24 W/m

0.00 mm

07:00

8.2 C

1013.9 hpa

93 %

0.0 km/h aus 118

0.0 km/h aus ---

7.2 C

8.4 C

8.2 C

8.4 C

25 W/m

0.00 mm

07:05

8.4 C

1013.9 hpa

94 %

0.0 km/h aus 116

0.0 km/h aus ---

7.5 C

8.6 C

8.4 C

8.6 C

26 W/m

0.00 mm

07:10

8.6 C

1013.9 hpa

94 %

3.2 km/h aus 114

6.4 km/h aus N

7.7 C

8.8 C

8.6 C

8.8 C

29 W/m

0.00 mm

07:15

8.8 C

1013.9 hpa

94 %

3.2 km/h aus 115

8.0 km/h aus NE

7.9 C

9.1 C

8.8 C

9.1 C

30 W/m

0.00 mm

07:20

9.1 C

1013.9 hpa

94 %

4.8 km/h aus 117

9.7 km/h aus NE

8.1 C

8.9 C

8.7 C

9.3 C

38 W/m

0.00 mm

07:25

9.3 C

1013.9 hpa

95 %

3.2 km/h aus 117

6.4 km/h aus NE

8.5 C

9.6 C

9.3 C

9.6 C

118 W/m

0.00 mm

07:30

9.5 C

1014.0 hpa

95 %

1.6 km/h aus 117

6.4 km/h aus NE

8.7 C

9.8 C

9.5 C

9.8 C

135 W/m

0.00 mm

07:35

9.9 C

1014.0 hpa

95 %

0.0 km/h aus 114

0.0 km/h aus ---

9.1 C

10.2 C

9.9 C

10.2 C

150 W/m

0.00 mm

07:40

10.2 C

1014.0 hpa

95 %

0.0 km/h aus 114

3.2 km/h aus NE

9.4 C

10.4 C

10.2 C

10.4 C

164 W/m

0.00 mm

07:45

10.5 C

1013.9 hpa

96 %

0.0 km/h aus 116

0.0 km/h aus ---

9.9 C

10.8 C

10.5 C

10.8 C

179 W/m

0.00 mm

07:50

10.7 C

1013.9 hpa

96 %

0.0 km/h aus 117

0.0 km/h aus ---

10.1 C

10.9 C

10.7 C

10.9 C

196 W/m

0.00 mm

07:55

11.0 C

1013.9 hpa

96 %

0.0 km/h aus 117

0.0 km/h aus ---

10.4 C

11.2 C

11.0 C

11.2 C

212 W/m

0.00 mm

08:00

11.3 C

1014.0 hpa

96 %

0.0 km/h aus 115

1.6 km/h aus ENE

10.7 C

11.4 C

11.3 C

11.4 C

226 W/m

0.00 mm

08:05

11.6 C

1014.0 hpa

96 %

0.0 km/h aus 115

0.0 km/h aus ---

10.9 C

11.7 C

11.6 C

11.7 C

242 W/m

0.00 mm

08:10

11.8 C

1014.0 hpa

96 %

0.0 km/h aus 117

0.0 km/h aus ---

11.2 C

11.9 C

11.8 C

11.9 C

257 W/m

0.00 mm

08:15

12.1 C

1014.0 hpa

95 %

0.0 km/h aus 117

3.2 km/h aus ENE

11.3 C

12.2 C

12.1 C

12.2 C

270 W/m

0.00 mm

08:20

12.3 C

1014.0 hpa

94 %

0.0 km/h aus 116

0.0 km/h aus ---

11.3 C

12.4 C

12.3 C

12.4 C

284 W/m

0.00 mm

08:25

12.5 C

1014.0 hpa

93 %

0.0 km/h aus 115

0.0 km/h aus ---

11.4 C

12.6 C

12.5 C

12.6 C

304 W/m

0.00 mm

08:30

12.8 C

1014.0 hpa

93 %

0.0 km/h aus 114

0.0 km/h aus ---

11.7 C

12.9 C

12.8 C

12.9 C

320 W/m

0.00 mm

08:35

13.2 C

1014.0 hpa

91 %

0.0 km/h aus 117

4.8 km/h aus ENE

11.7 C

13.2 C

13.2 C

13.2 C

336 W/m

0.00 mm

08:40

13.4 C

1014.0 hpa

91 %

1.6 km/h aus 116

4.8 km/h aus ENE

12.0 C

13.5 C

13.4 C

13.5 C

351 W/m

0.00 mm

08:45

13.7 C

1013.9 hpa

90 %

0.0 km/h aus 116

1.6 km/h aus ENE

12.1 C

13.8 C

13.7 C

13.8 C

366 W/m

0.00 mm

08:50

14.1 C

1013.9 hpa

88 %

1.6 km/h aus 116

6.4 km/h aus ENE

12.1 C

14.1 C

14.1 C

14.1 C

378 W/m

0.00 mm

08:55

14.3 C

1013.9 hpa

87 %

1.6 km/h aus 115

8.0 km/h aus ENE

12.2 C

14.3 C

14.3 C

14.3 C

392 W/m

0.00 mm

09:00

14.6 C

1013.9 hpa

85 %

0.0 km/h aus 117

1.6 km/h aus NE

12.1 C

14.5 C

14.6 C

14.5 C

405 W/m

0.00 mm

09:05

14.8 C

1013.9 hpa

84 %

1.6 km/h aus 117

6.4 km/h aus NE

12.1 C

14.7 C

14.8 C

14.7 C

419 W/m

0.00 mm

09:10

15.1 C

1013.9 hpa

83 %

1.6 km/h aus 117

8.0 km/h aus NE

12.2 C

15.0 C

15.1 C

15.0 C

432 W/m

0.00 mm

09:15

15.4 C

1013.9 hpa

83 %

3.2 km/h aus 114

9.7 km/h aus NE

12.5 C

15.4 C

15.4 C

15.4 C

445 W/m

0.00 mm

09:20

15.8 C

1013.9 hpa

80 %

3.2 km/h aus 115

8.0 km/h aus NE

12.3 C

15.7 C

15.8 C

15.7 C

459 W/m

0.00 mm

09:25

16.2 C

1013.9 hpa

79 %

1.6 km/h aus 117

6.4 km/h aus NE

12.5 C

16.2 C

16.2 C

16.2 C

470 W/m

0.00 mm

09:30

16.4 C

1013.8 hpa

78 %

3.2 km/h aus 117

8.0 km/h aus NE

12.6 C

16.4 C

16.4 C

16.4 C

482 W/m

0.00 mm

09:35

16.2 C

1013.8 hpa

78 %

1.6 km/h aus 117

6.4 km/h aus NNE

12.3 C

16.1 C

16.2 C

16.1 C

494 W/m

0.00 mm

09:40

16.1 C

1013.8 hpa

76 %

1.6 km/h aus 113

8.0 km/h aus NNE

11.8 C

15.9 C

16.1 C

15.9 C

508 W/m

0.00 mm

09:45

16.3 C

1013.8 hpa

77 %

4.8 km/h aus 115

11.3 km/h aus NE

12.3 C

16.3 C

16.3 C

16.3 C

519 W/m

0.00 mm

09:50

16.3 C

1013.8 hpa

74 %

3.2 km/h aus 117

6.4 km/h aus ESE

11.6 C

16.1 C

16.3 C

16.1 C

533 W/m

0.00 mm

09:55

16.4 C

1013.8 hpa

75 %

0.0 km/h aus 117

4.8 km/h aus ESE

12.0 C

16.3 C

16.4 C

16.3 C

542 W/m

0.00 mm

10:00

16.9 C

1013.8 hpa

73 %

4.8 km/h aus 116

11.3 km/h aus NE

12.1 C

16.8 C

16.9 C

16.8 C

555 W/m

0.00 mm

10:05

16.9 C

1013.8 hpa

73 %

3.2 km/h aus 114

6.4 km/h aus NE

12.1 C

16.8 C

16.9 C

16.8 C

563 W/m

0.00 mm

10:10

16.8 C

1013.8 hpa

74 %

1.6 km/h aus 118

9.7 km/h aus ENE

12.1 C

16.7 C

16.8 C

16.7 C

580 W/m

0.00 mm

10:15

17.1 C

1013.6 hpa

70 %

3.2 km/h aus 117

11.3 km/h aus ESE

11.5 C

16.8 C

17.1 C

16.8 C

601 W/m

0.00 mm

10:20

17.1 C

1013.6 hpa

69 %

1.6 km/h aus 117

6.4 km/h aus NNE

11.4 C

16.9 C

17.1 C

16.9 C

602 W/m

0.00 mm

10:25

17.4 C

1013.6 hpa

69 %

3.2 km/h aus 115

6.4 km/h aus ENE

11.6 C

17.2 C

17.4 C

17.2 C

622 W/m

0.00 mm

10:30

17.6 C

1013.4 hpa

70 %

0.0 km/h aus 116

3.2 km/h aus NE

12.0 C

17.4 C

17.6 C

17.4 C

633 W/m

0.00 mm

10:35

17.6 C

1013.4 hpa

71 %

3.2 km/h aus 117

8.0 km/h aus ESE

12.3 C

17.5 C

17.6 C

17.5 C

650 W/m

0.00 mm

10:40

17.8 C

1013.4 hpa

68 %

3.2 km/h aus 117

11.3 km/h aus E

11.8 C

17.6 C

17.8 C

17.6 C

653 W/m

0.00 mm

10:45

18.2 C

1013.4 hpa

66 %

4.8 km/h aus 116

9.7 km/h aus E

11.8 C

18.1 C

18.2 C

18.1 C

658 W/m

0.00 mm

10:50

18.1 C

1013.4 hpa

65 %

3.2 km/h aus 113

8.0 km/h aus SE

11.4 C

17.8 C

18.1 C

17.8 C

661 W/m

0.00 mm

10:55

18.6 C

1013.4 hpa

63 %

3.2 km/h aus 117

11.3 km/h aus NE

11.4 C

18.4 C

18.6 C

18.4 C

670 W/m

0.00 mm

11:00

18.4 C

1013.4 hpa

59 %

0.0 km/h aus 116

3.2 km/h aus ENE

10.3 C

17.9 C

18.4 C

17.9 C

683 W/m

0.00 mm

11:05

18.7 C

1013.4 hpa

57 %

3.2 km/h aus 115

11.3 km/h aus ENE

10.0 C

18.1 C

18.7 C

18.1 C

689 W/m

0.00 mm

11:10

18.9 C

1013.4 hpa

62 %

6.4 km/h aus 115

16.1 km/h aus NE

11.4 C

18.6 C

18.9 C

18.6 C

695 W/m

0.00 mm

11:15

19.2 C

1013.3 hpa

57 %

4.8 km/h aus 116

14.5 km/h aus NNE

10.4 C

18.7 C

19.2 C

18.7 C

702 W/m

0.00 mm

11:20

18.9 C

1013.3 hpa

56 %

3.2 km/h aus 117

9.7 km/h aus ESE

9.9 C

18.3 C

18.9 C

18.3 C

711 W/m

0.00 mm

11:25

19.2 C

1013.3 hpa

56 %

4.8 km/h aus 117

11.3 km/h aus NNE

10.2 C

18.7 C

19.2 C

18.7 C

721 W/m

0.00 mm

11:30

19.4 C

1013.2 hpa

58 %

4.8 km/h aus 117

11.3 km/h aus N

10.9 C

19.0 C

19.4 C

19.0 C

729 W/m

0.00 mm

11:35

19.2 C

1013.2 hpa

54 %

9.7 km/h aus 114

20.9 km/h aus NE

9.7 C

18.6 C

19.2 C

18.6 C

739 W/m

0.00 mm

11:40

19.3 C

1013.2 hpa

55 %

6.4 km/h aus 117

19.3 km/h aus NE

10.1 C

18.8 C

19.3 C

18.8 C

746 W/m

0.00 mm

11:45

19.6 C

1013.2 hpa

55 %

4.8 km/h aus 117

11.3 km/h aus NE

10.3 C

19.1 C

19.6 C

19.1 C

755 W/m

0.00 mm

11:50

19.6 C

1013.2 hpa

56 %

3.2 km/h aus 117

11.3 km/h aus NE

10.5 C

19.1 C

19.6 C

19.1 C

764 W/m

0.00 mm

11:55

19.6 C

1013.2 hpa

55 %

6.4 km/h aus 116

17.7 km/h aus NNE

10.3 C

19.1 C

19.6 C

19.1 C

775 W/m

0.00 mm

12:00

19.7 C

1013.1 hpa

57 %

6.4 km/h aus 115

14.5 km/h aus ENE

11.0 C

19.3 C

19.7 C

19.3 C

781 W/m

0.00 mm

12:05

19.7 C

1013.1 hpa

58 %

3.2 km/h aus 117

14.5 km/h aus NNE

11.2 C

19.4 C

19.7 C

19.4 C

784 W/m

0.00 mm

12:10

20.2 C

1013.1 hpa

55 %

3.2 km/h aus 117

17.7 km/h aus NNE

10.8 C

19.7 C

20.2 C

19.7 C

749 W/m

0.00 mm

12:15

19.8 C

1012.9 hpa

55 %

8.0 km/h aus 116

22.5 km/h aus NNE

10.5 C

19.4 C

19.8 C

19.4 C

771 W/m

0.00 mm

12:20

19.9 C

1012.9 hpa

57 %

6.4 km/h aus 115

16.1 km/h aus NNE

11.2 C

19.6 C

19.9 C

19.6 C

752 W/m

0.00 mm

12:25

19.9 C

1012.9 hpa

55 %

4.8 km/h aus 116

11.3 km/h aus ENE

10.6 C

19.5 C

19.9 C

19.5 C

721 W/m

0.00 mm

12:30

19.9 C

1012.8 hpa

56 %

8.0 km/h aus 117

19.3 km/h aus NNE

10.9 C

19.6 C

19.9 C

19.6 C

666 W/m

0.00 mm

12:35

19.7 C

1012.8 hpa

56 %

6.4 km/h aus 117

16.1 km/h aus NE

10.7 C

19.3 C

19.7 C

19.3 C

662 W/m

0.00 mm

12:40

19.6 C

1012.8 hpa

57 %

4.8 km/h aus 114

16.1 km/h aus NNE

10.8 C

19.2 C

19.6 C

19.2 C

615 W/m

0.00 mm

12:45

19.7 C

1012.8 hpa

57 %

4.8 km/h aus 115

16.1 km/h aus N

10.9 C

19.3 C

19.7 C

19.3 C

645 W/m

0.00 mm

12:50

19.9 C

1012.8 hpa

55 %

9.7 km/h aus 117

17.7 km/h aus NE

10.6 C

19.4 C

19.9 C

19.4 C

739 W/m

0.00 mm

12:55

20.2 C

1012.8 hpa

54 %

3.2 km/h aus 117

11.3 km/h aus NE

10.6 C

19.6 C

20.2 C

19.6 C

796 W/m

0.00 mm

13:00

20.2 C

1012.8 hpa

54 %

4.8 km/h aus 117

16.1 km/h aus NE

10.6 C

19.6 C

20.2 C

19.6 C

899 W/m

0.00 mm

13:05

20.4 C

1012.8 hpa

55 %

4.8 km/h aus 114

16.1 km/h aus NNE

11.0 C

19.9 C

20.4 C

19.9 C

897 W/m

0.00 mm

13:10

20.3 C

1012.8 hpa

54 %

6.4 km/h aus 115

19.3 km/h aus NE

10.7 C

19.7 C

20.3 C

19.7 C

683 W/m

0.00 mm

13:15

20.8 C

1012.6 hpa

52 %

3.2 km/h aus 116

9.7 km/h aus NNE

10.6 C

20.0 C

20.8 C

20.0 C

804 W/m

0.00 mm

13:20

20.3 C

1012.6 hpa

51 %

8.0 km/h aus 118

17.7 km/h aus NE

9.9 C

19.6 C

20.3 C

19.6 C

761 W/m

0.00 mm

13:25

20.6 C

1012.6 hpa

54 %

3.2 km/h aus 113

9.7 km/h aus ENE

11.0 C

20.0 C

20.6 C

20.0 C

750 W/m

0.00 mm

13:30

20.8 C

1012.4 hpa

53 %

6.4 km/h aus 115

19.3 km/h aus ENE

10.8 C

20.1 C

20.8 C

20.1 C

711 W/m

0.00 mm

13:35

20.4 C

1012.4 hpa

53 %

4.8 km/h aus 116

17.7 km/h aus ENE

10.5 C

19.8 C

20.4 C

19.8 C

696 W/m

0.00 mm

13:40

20.6 C

1012.4 hpa

53 %

1.6 km/h aus 117

6.4 km/h aus NE

10.6 C

19.9 C

20.6 C

19.9 C

752 W/m

0.00 mm

13:45

20.8 C

1012.3 hpa

53 %

3.2 km/h aus 117

17.7 km/h aus NE

10.9 C

20.1 C

20.8 C

20.1 C

821 W/m

0.00 mm

13:50

21.1 C

1012.3 hpa

51 %

9.7 km/h aus 114

20.9 km/h aus N

10.5 C

20.2 C

21.1 C

20.2 C

778 W/m

0.00 mm

13:55

20.7 C

1012.3 hpa

52 %

4.8 km/h aus 117

14.5 km/h aus NNE

10.5 C

19.9 C

20.7 C

19.9 C

669 W/m

0.00 mm

14:00

20.5 C

1012.2 hpa

52 %

4.8 km/h aus 117

17.7 km/h aus ENE

10.3 C

19.8 C

20.5 C

19.8 C

689 W/m

0.00 mm

14:05

20.6 C

1012.2 hpa

55 %

1.6 km/h aus 116

11.3 km/h aus NE

11.2 C

20.1 C

20.6 C

20.1 C

643 W/m

0.00 mm

14:10

20.7 C

1012.2 hpa

52 %

3.2 km/h aus 115

9.7 km/h aus N

10.5 C

20.0 C

20.7 C

20.0 C

688 W/m

0.00 mm

14:15

20.8 C

1012.2 hpa

51 %

4.8 km/h aus 115

11.3 km/h aus NE

10.3 C

20.0 C

20.8 C

20.0 C

700 W/m

0.00 mm

14:20

20.7 C

1012.2 hpa

50 %

6.4 km/h aus 117

14.5 km/h aus ENE

9.9 C

19.9 C

20.7 C

19.9 C

738 W/m

0.00 mm

14:25

20.9 C

1012.2 hpa

50 %

6.4 km/h aus 118

17.7 km/h aus N

10.1 C

20.1 C

20.9 C

20.1 C

770 W/m

0.00 mm

14:30

21.3 C

1011.8 hpa

50 %

4.8 km/h aus 116

19.3 km/h aus NW

10.5 C

20.4 C

21.3 C

20.4 C

724 W/m

0.00 mm

14:35

21.3 C

1011.8 hpa

50 %

6.4 km/h aus 114

16.1 km/h aus N

10.5 C

20.4 C

21.3 C

20.4 C

732 W/m

0.00 mm

14:40

21.3 C

1011.8 hpa

50 %

6.4 km/h aus 117

16.1 km/h aus N

10.5 C

20.4 C

21.3 C

20.4 C

736 W/m

0.00 mm

14:45

21.7 C

1011.8 hpa

49 %

8.0 km/h aus 117

14.5 km/h aus NE

10.5 C

20.8 C

21.7 C

20.8 C

773 W/m

0.00 mm

14:50

21.3 C

1011.8 hpa

50 %

3.2 km/h aus 116

14.5 km/h aus NE

10.4 C

20.4 C

21.3 C

20.4 C

714 W/m

0.00 mm

14:55

21.3 C

1011.8 hpa

51 %

4.8 km/h aus 115

19.3 km/h aus NNE

10.8 C

20.5 C

21.3 C

20.5 C

720 W/m

0.00 mm

15:00

21.3 C

1011.7 hpa

49 %

6.4 km/h aus 114

16.1 km/h aus NE

10.2 C

20.4 C

21.3 C

20.4 C

663 W/m

0.00 mm

15:05

21.2 C

1011.7 hpa

48 %

4.8 km/h aus 116

17.7 km/h aus NE

9.8 C

20.2 C

21.2 C

20.2 C

652 W/m

0.00 mm

15:10

21.4 C

1011.7 hpa

47 %

4.8 km/h aus 116

11.3 km/h aus NE

9.6 C

20.4 C

21.4 C

20.4 C

608 W/m

0.00 mm

15:15

21.5 C

1011.7 hpa

48 %

8.0 km/h aus 117

20.9 km/h aus NE

10.0 C

20.6 C

21.5 C

20.6 C

581 W/m

0.00 mm

15:20

21.2 C

1011.7 hpa

49 %

4.8 km/h aus 114

14.5 km/h aus NNE

10.1 C

20.3 C

21.2 C

20.3 C

563 W/m

0.00 mm

15:25

21.3 C

1011.7 hpa

46 %

8.0 km/h aus 117

16.1 km/h aus NE

9.2 C

20.2 C

21.3 C

20.2 C

629 W/m

0.00 mm

15:30

21.4 C

1011.7 hpa

47 %

1.6 km/h aus 117

6.4 km/h aus N

9.6 C

20.4 C

21.4 C

20.4 C

650 W/m

0.00 mm

15:35

21.6 C

1011.7 hpa

47 %

4.8 km/h aus 117

11.3 km/h aus NE

9.8 C

20.7 C

21.6 C

20.7 C

679 W/m

0.00 mm

15:40

21.9 C

1011.7 hpa

47 %

4.8 km/h aus 115

11.3 km/h aus NNE

10.1 C

21.1 C

21.9 C

21.1 C

677 W/m

0.00 mm

15:45

21.7 C

1011.4 hpa

45 %

4.8 km/h aus 116

16.1 km/h aus NE

9.3 C

20.7 C

21.7 C

20.7 C

653 W/m

0.00 mm

15:50

21.9 C

1011.4 hpa

47 %

6.4 km/h aus 117

16.1 km/h aus NE

10.1 C

21.1 C

21.9 C

21.1 C

654 W/m

0.00 mm

15:55

21.7 C

1011.4 hpa

45 %

9.7 km/h aus 117

17.7 km/h aus NE

9.3 C

20.7 C

21.7 C

20.7 C

643 W/m

0.00 mm

16:00

21.4 C

1011.2 hpa

44 %

6.4 km/h aus 116

16.1 km/h aus NE

8.7 C

20.3 C

21.4 C

20.3 C

639 W/m

0.00 mm

16:05

21.8 C

1011.2 hpa

44 %

6.4 km/h aus 114

17.7 km/h aus N

9.0 C

20.8 C

21.8 C

20.8 C

607 W/m

0.00 mm

16:10

22.1 C

1011.2 hpa

47 %

6.4 km/h aus 117

17.7 km/h aus N

10.2 C

21.3 C

22.1 C

21.3 C

610 W/m

0.00 mm

16:15

22.1 C

1011.1 hpa

44 %

6.4 km/h aus 117

17.7 km/h aus NE

9.2 C

21.1 C

22.1 C

21.1 C

603 W/m

0.00 mm

16:20

21.8 C

1011.1 hpa

46 %

4.8 km/h aus 117

11.3 km/h aus NE

9.6 C

20.8 C

21.8 C

20.8 C

594 W/m

0.00 mm

16:25

22.1 C

1011.1 hpa

47 %

4.8 km/h aus 114

11.3 km/h aus N

10.3 C

21.4 C

22.1 C

21.4 C

582 W/m

0.00 mm

16:30

21.9 C

1010.9 hpa

45 %

8.0 km/h aus 117

19.3 km/h aus NNE

9.4 C

20.9 C

21.9 C

20.9 C

572 W/m

0.00 mm

16:35

21.7 C

1010.9 hpa

44 %

3.2 km/h aus 117

12.9 km/h aus ENE

8.9 C

20.6 C

21.7 C

20.6 C

559 W/m

0.00 mm

16:40

22.0 C

1010.9 hpa

45 %

8.0 km/h aus 117

22.5 km/h aus NE

9.5 C

21.1 C

22.0 C

21.1 C

549 W/m

0.00 mm

16:45

21.9 C

1010.8 hpa

44 %

8.0 km/h aus 115

17.7 km/h aus N

9.1 C

20.9 C

21.9 C

20.9 C

538 W/m

0.00 mm

16:50

22.1 C

1010.8 hpa

44 %

4.8 km/h aus 115

14.5 km/h aus NE

9.2 C

21.1 C

22.1 C

21.1 C

528 W/m

0.00 mm

16:55

22.1 C

1010.8 hpa

45 %

4.8 km/h aus 117

14.5 km/h aus NE

9.6 C

21.3 C

22.1 C

21.3 C

517 W/m

0.00 mm

17:00

22.0 C

1010.7 hpa

42 %

3.2 km/h aus 117

16.1 km/h aus NE

8.5 C

20.9 C

22.0 C

20.9 C

504 W/m

0.00 mm

17:05

21.9 C

1010.7 hpa

45 %

6.4 km/h aus 115

16.1 km/h aus NE

9.4 C

20.9 C

21.9 C

20.9 C

492 W/m

0.00 mm

17:10

21.9 C

1010.7 hpa

44 %

4.8 km/h aus 115

16.1 km/h aus NNE

9.1 C

20.9 C

21.9 C

20.9 C

479 W/m

0.00 mm

17:15

22.1 C

1010.7 hpa

43 %

4.8 km/h aus 117

12.9 km/h aus NNE

8.9 C

21.2 C

22.1 C

21.2 C

465 W/m

0.00 mm

17:20

22.0 C

1010.7 hpa

44 %

4.8 km/h aus 116

16.1 km/h aus NE

9.2 C

21.1 C

22.0 C

21.1 C

453 W/m

0.00 mm

17:25

22.1 C

1010.7 hpa

44 %

4.8 km/h aus 115

12.9 km/h aus NNE

9.2 C

21.1 C

22.1 C

21.1 C

441 W/m

0.00 mm

17:30

22.2 C

1010.6 hpa

44 %

3.2 km/h aus 114

9.7 km/h aus NE

9.3 C

21.3 C

22.2 C

21.3 C

428 W/m

0.00 mm

17:35

22.0 C

1010.6 hpa

43 %

3.2 km/h aus 118

12.9 km/h aus NE

8.8 C

21.0 C

22.0 C

21.0 C

416 W/m

0.00 mm

17:40

22.0 C

1010.6 hpa

45 %

4.8 km/h aus 117

16.1 km/h aus NE

9.5 C

21.1 C

22.0 C

21.1 C

403 W/m

0.00 mm

17:45

22.1 C

1010.4 hpa

45 %

3.2 km/h aus 116

16.1 km/h aus NNE

9.6 C

21.3 C

22.1 C

21.3 C

388 W/m

0.00 mm

17:50

22.1 C

1010.4 hpa

44 %

3.2 km/h aus 113

11.3 km/h aus NNW

9.2 C

21.1 C

22.1 C

21.1 C

373 W/m

0.00 mm

17:55

21.9 C

1010.4 hpa

45 %

6.4 km/h aus 116

20.9 km/h aus NNE

9.5 C

21.0 C

21.9 C

21.0 C

360 W/m

0.00 mm

18:00

21.8 C

1010.2 hpa

46 %

6.4 km/h aus 117

16.1 km/h aus NE

9.7 C

20.9 C

21.8 C

20.9 C

347 W/m

0.00 mm

18:05

21.8 C

1010.2 hpa

45 %

4.8 km/h aus 116

14.5 km/h aus NE

9.4 C

20.9 C

21.8 C

20.9 C

333 W/m

0.00 mm

18:10

21.7 C

1010.2 hpa

45 %

4.8 km/h aus 115

17.7 km/h aus NNE

9.3 C

20.7 C

21.7 C

20.7 C

321 W/m

0.00 mm

18:15

21.7 C

1010.2 hpa

44 %

4.8 km/h aus 115

11.3 km/h aus NNE

8.9 C

20.6 C

21.7 C

20.6 C

307 W/m

0.00 mm

18:20

21.6 C

1010.2 hpa

46 %

6.4 km/h aus 117

17.7 km/h aus ENE

9.4 C

20.5 C

21.6 C

20.5 C

295 W/m

0.00 mm

18:25

21.6 C

1010.2 hpa

46 %

3.2 km/h aus 117

11.3 km/h aus NNW

9.5 C

20.6 C

21.6 C

20.6 C

279 W/m

0.00 mm

18:30

21.5 C

1010.0 hpa

45 %

3.2 km/h aus 117

11.3 km/h aus NNW

9.1 C

20.4 C

21.5 C

20.4 C

264 W/m

0.00 mm

18:35

21.4 C

1010.0 hpa

45 %

4.8 km/h aus 114

16.1 km/h aus NNE

9.0 C

20.3 C

21.4 C

20.3 C

250 W/m

0.00 mm

18:40

21.3 C

1010.0 hpa

45 %

4.8 km/h aus 116

14.5 km/h aus NNE

8.9 C

20.2 C

21.3 C

20.2 C

232 W/m

0.00 mm

18:45

21.3 C

1010.1 hpa

46 %

3.2 km/h aus 117

9.7 km/h aus NE

9.2 C

20.2 C

21.3 C

20.2 C

216 W/m

0.00 mm

18:50

21.3 C

1010.1 hpa

46 %

3.2 km/h aus 116

9.7 km/h aus NNE

9.2 C

20.2 C

21.3 C

20.2 C

198 W/m

0.00 mm

18:55

21.2 C

1010.1 hpa

45 %

6.4 km/h aus 115

16.1 km/h aus N

8.8 C

19.9 C

21.2 C

19.9 C

180 W/m

0.00 mm

19:00

21.1 C

1010.1 hpa

46 %

4.8 km/h aus 115

9.7 km/h aus NNE

9.0 C

19.9 C

21.1 C

19.9 C

112 W/m

0.00 mm

19:05

21.1 C

1010.1 hpa

47 %

1.6 km/h aus 117

4.8 km/h aus NE

9.4 C

20.0 C

21.1 C

20.0 C

35 W/m

0.00 mm

19:10

21.1 C

1010.1 hpa

47 %

3.2 km/h aus 117

11.3 km/h aus NNE

9.4 C

20.0 C

21.1 C

20.0 C

33 W/m

0.00 mm

19:15

21.1 C

1009.9 hpa

47 %

4.8 km/h aus 116

14.5 km/h aus NNE

9.3 C

19.9 C

21.1 C

19.9 C

32 W/m

0.00 mm

19:20

20.9 C

1009.9 hpa

47 %

4.8 km/h aus 114

11.3 km/h aus NE

9.2 C

19.9 C

20.9 C

19.9 C

31 W/m

0.00 mm

19:25

20.9 C

1009.9 hpa

47 %

1.6 km/h aus 117

6.4 km/h aus NNE

9.2 C

19.8 C

20.9 C

19.8 C

30 W/m

0.00 mm

19:30

20.8 C

1009.8 hpa

47 %

1.6 km/h aus 116

6.4 km/h aus NNE

9.0 C

19.8 C

20.8 C

19.8 C

28 W/m

0.00 mm

19:35

20.7 C

1009.8 hpa

48 %

3.2 km/h aus 117

8.0 km/h aus NNE

9.3 C

19.8 C

20.7 C

19.8 C

27 W/m

0.00 mm

19:40

20.7 C

1009.8 hpa

49 %

1.6 km/h aus 115

8.0 km/h aus NE

9.6 C

19.8 C

20.7 C

19.8 C

26 W/m

0.00 mm

19:45

20.6 C

1010.0 hpa

51 %

1.6 km/h aus 116

8.0 km/h aus N

10.1 C

19.8 C

20.6 C

19.8 C

25 W/m

0.00 mm

19:50

20.4 C

1010.0 hpa

51 %

1.6 km/h aus 117

6.4 km/h aus NNE

9.9 C

19.7 C

20.4 C

19.7 C

23 W/m

0.00 mm

19:55

20.3 C

1010.0 hpa

52 %

0.0 km/h aus 117

6.4 km/h aus N

10.1 C

19.6 C

20.3 C

19.6 C

22 W/m

0.00 mm

20:00

20.2 C

1009.9 hpa

52 %

0.0 km/h aus 117

4.8 km/h aus N

10.0 C

19.6 C

20.2 C

19.6 C

20 W/m

0.00 mm

20:05

20.1 C

1009.9 hpa

53 %

0.0 km/h aus 114

0.0 km/h aus ---

10.2 C

19.6 C

20.1 C

19.6 C

19 W/m

0.00 mm

20:10

19.9 C

1009.9 hpa

53 %

0.0 km/h aus 116

0.0 km/h aus ---

10.1 C

19.4 C

19.9 C

19.4 C

16 W/m

0.00 mm

20:15

19.8 C

1010.0 hpa

54 %

0.0 km/h aus 117

3.2 km/h aus N

10.3 C

19.3 C

19.8 C

19.3 C

14 W/m

0.00 mm

20:20

19.7 C

1010.0 hpa

54 %

0.0 km/h aus 117

1.6 km/h aus N

10.1 C

19.1 C

19.7 C

19.1 C

13 W/m

0.00 mm

20:25

19.6 C

1010.0 hpa

55 %

0.0 km/h aus 116

3.2 km/h aus N

10.3 C

19.1 C

19.6 C

19.1 C

11 W/m

0.00 mm

20:30

19.3 C

1010.0 hpa

56 %

0.0 km/h aus 114

4.8 km/h aus N

10.3 C

18.8 C

19.3 C

18.8 C

10 W/m

0.00 mm

20:35

19.2 C

1010.0 hpa

56 %

0.0 km/h aus 117

1.6 km/h aus N

10.2 C

18.7 C

19.2 C

18.7 C

7 W/m

0.00 mm

20:40

18.9 C

1010.0 hpa

57 %

0.0 km/h aus 115

0.0 km/h aus ---

10.2 C

18.4 C

18.9 C

18.4 C

5 W/m

0.00 mm

20:45

18.7 C

1009.9 hpa

58 %

0.0 km/h aus 118

0.0 km/h aus ---

10.3 C

18.2 C

18.7 C

18.2 C

2 W/m

0.00 mm

20:50

18.4 C

1009.9 hpa

59 %

0.0 km/h aus 115

0.0 km/h aus ---

10.3 C

17.9 C

18.4 C

17.9 C

0 W/m

0.00 mm

20:55

18.2 C

1009.9 hpa

60 %

0.0 km/h aus 115

0.0 km/h aus ---

10.3 C

17.8 C

18.2 C

17.8 C

0 W/m

0.00 mm

21:00

17.9 C

1010.1 hpa

60 %

0.0 km/h aus 115

0.0 km/h aus ---

10.1 C

17.4 C

17.9 C

17.4 C

0 W/m

0.00 mm

21:05

17.7 C

1010.1 hpa

62 %

0.0 km/h aus 117

0.0 km/h aus ---

10.3 C

17.2 C

17.7 C

17.2 C

0 W/m

0.00 mm

21:10

17.4 C

1010.1 hpa

63 %

0.0 km/h aus 116

0.0 km/h aus ---

10.3 C

16.9 C

17.4 C

16.9 C

0 W/m

0.00 mm

21:15

17.2 C

1010.1 hpa

64 %

0.0 km/h aus 115

0.0 km/h aus ---

10.3 C

16.8 C

17.2 C

16.8 C

0 W/m

0.00 mm

21:20

16.9 C

1010.1 hpa

65 %

0.0 km/h aus 115

0.0 km/h aus ---

10.3 C

16.6 C

16.9 C

16.6 C

0 W/m

0.00 mm

21:25

16.7 C

1010.1 hpa

66 %

0.0 km/h aus 117

0.0 km/h aus ---

10.3 C

16.4 C

16.7 C

16.4 C

0 W/m

0.00 mm

21:30

16.5 C

1010.1 hpa

67 %

0.0 km/h aus 116

0.0 km/h aus ---

10.3 C

16.2 C

16.5 C

16.2 C

0 W/m

0.00 mm

21:35

16.2 C

1010.1 hpa

68 %

0.0 km/h aus 116

0.0 km/h aus ---

10.3 C

15.8 C

16.2 C

15.8 C

0 W/m

0.00 mm

21:40

15.9 C

1010.1 hpa

69 %

0.0 km/h aus 115

0.0 km/h aus ---

10.2 C

15.6 C

15.9 C

15.6 C

0 W/m

0.00 mm

21:45

15.7 C

1010.2 hpa

69 %

0.0 km/h aus 114

0.0 km/h aus ---

10.0 C

15.3 C

15.7 C

15.3 C

0 W/m

0.00 mm

21:50

15.4 C

1010.2 hpa

70 %

0.0 km/h aus 117

0.0 km/h aus ---

10.0 C

15.1 C

15.4 C

15.1 C

0 W/m

0.00 mm

21:55

15.3 C

1010.2 hpa

70 %

0.0 km/h aus 117

0.0 km/h aus ---

9.8 C

14.9 C

15.3 C

14.9 C

0 W/m

0.00 mm

22:00

15.2 C

1010.1 hpa

71 %

0.0 km/h aus 117

0.0 km/h aus ---

9.9 C

14.8 C

15.2 C

14.8 C

0 W/m

0.00 mm

22:05

15.0 C

1010.1 hpa

71 %

0.0 km/h aus 114

0.0 km/h aus ---

9.8 C

14.6 C

15.0 C

14.6 C

0 W/m

0.00 mm

22:10

14.8 C

1010.1 hpa

73 %

0.0 km/h aus 113

0.0 km/h aus ---

10.0 C

14.4 C

14.8 C

14.4 C

0 W/m

0.00 mm

22:15

14.6 C

1010.1 hpa

74 %

0.0 km/h aus 116

0.0 km/h aus ---

10.0 C

14.2 C

14.6 C

14.2 C

0 W/m

0.00 mm

22:20

14.4 C

1010.1 hpa

74 %

0.0 km/h aus 117

0.0 km/h aus ---

9.8 C

14.1 C

14.4 C

14.1 C

0 W/m

0.00 mm

22:25

14.2 C

1010.1 hpa

75 %

0.0 km/h aus 116

0.0 km/h aus ---

9.8 C

13.9 C

14.2 C

13.9 C

0 W/m

0.00 mm

22:30

14.0 C

1010.2 hpa

76 %

0.0 km/h aus 116

0.0 km/h aus ---

9.8 C

13.7 C

14.0 C

13.7 C

0 W/m

0.00 mm

22:35

13.9 C

1010.2 hpa

76 %

0.0 km/h aus 112

0.0 km/h aus ---

9.7 C

13.6 C

13.9 C

13.6 C

0 W/m

0.00 mm

22:40

13.7 C

1010.2 hpa

76 %

0.0 km/h aus 116

0.0 km/h aus ---

9.6 C

13.4 C

13.7 C

13.4 C

0 W/m

0.00 mm

22:45

13.6 C

1010.1 hpa

77 %

0.0 km/h aus 117

0.0 km/h aus ---

9.6 C

13.3 C

13.6 C

13.3 C

0 W/m

0.00 mm

22:50

13.4 C

1010.1 hpa

77 %

0.0 km/h aus 117

0.0 km/h aus ---

9.4 C

13.1 C

13.4 C

13.1 C

0 W/m

0.00 mm

22:55

13.2 C

1010.1 hpa

78 %

0.0 km/h aus 117

0.0 km/h aus ---

9.5 C

13.0 C

13.2 C

13.0 C

0 W/m

0.00 mm

23:00

13.1 C

1010.1 hpa

77 %

0.0 km/h aus 114

0.0 km/h aus ---

9.1 C

12.8 C

13.1 C

12.8 C

0 W/m

0.00 mm

23:05

12.9 C

1010.1 hpa

78 %

0.0 km/h aus 116

0.0 km/h aus ---

9.2 C

12.7 C

12.9 C

12.7 C

0 W/m

0.00 mm

23:10

12.8 C

1010.1 hpa

78 %

0.0 km/h aus 117

0.0 km/h aus ---

9.1 C

12.6 C

12.8 C

12.6 C

0 W/m

0.00 mm

23:15

12.7 C

1010.1 hpa

78 %

0.0 km/h aus 117

0.0 km/h aus ---

8.9 C

12.4 C

12.7 C

12.4 C

0 W/m

0.00 mm

23:20

12.6 C

1010.1 hpa

78 %

0.0 km/h aus 117

0.0 km/h aus ---

8.8 C

12.3 C

12.6 C

12.3 C

0 W/m

0.00 mm

23:25

12.5 C

1010.1 hpa

78 %

0.0 km/h aus 114

0.0 km/h aus ---

8.8 C

12.3 C

12.5 C

12.3 C

0 W/m

0.00 mm

23:30

12.4 C

1010.1 hpa

79 %

0.0 km/h aus 114

0.0 km/h aus ---

8.8 C

12.2 C

12.4 C

12.2 C

0 W/m

0.00 mm

23:35

12.3 C

1010.1 hpa

79 %

0.0 km/h aus 117

0.0 km/h aus ---

8.7 C

12.1 C

12.3 C

12.1 C

0 W/m

0.00 mm

23:40

12.2 C

1010.1 hpa

80 %

0.0 km/h aus 117

0.0 km/h aus ---

8.8 C

12.0 C

12.2 C

12.0 C

0 W/m

0.00 mm

23:45

12.1 C

1009.9 hpa

81 %

0.0 km/h aus 117

0.0 km/h aus ---

8.9 C

11.9 C

12.1 C

11.9 C

0 W/m

0.00 mm

23:50

12.0 C

1009.9 hpa

81 %

0.0 km/h aus 115

0.0 km/h aus ---

8.8 C

11.8 C

12.0 C

11.8 C

0 W/m

0.00 mm

23:55

11.9 C

1009.9 hpa

80 %

0.0 km/h aus 113

0.0 km/h aus ---

8.5 C

11.7 C

11.9 C

11.7 C

0 W/m

0.00 mm